Location: Mary A Oil Field
(38.5606°N, 98.9545°W)
Time: 16:56:39
(UTC+00:00)

Cosmos 2227 Rocket - Pass Details

Date: 20 January 2020
Orbit: 840 x 844 km, 71.0° (Epoch: 25 February)

Event Time Altitude Azimuth Distance (km) Brightness Sun altitude
Rises 01:50:06 0° 216° (SW) 3,383 5.9 -24.6°
Reaches altitude 10° 01:52:37 10° 222° (SW) 2,452 5.2 -25.1°
Maximum altitude 01:58:04 50° 297° (WNW) 1,065 2.9 -26.2°
Enters shadow 02:01:27 23° 3° (N) 1,741 3.7 -26.8°
